#timestamp,LO_Frequency,Hit,StdDev 
1607805795.9,286046964.6,P
1607805815.7,286046966.2,P
1607805835.6,286046970.3,P
1607805855.4,286046969.6,Y
1607805875.2,286047003.5,P
1607805895.1,286047003.0,N
1607805896.0,286047003.0,N
1607805915.8,286047003.2,N
1607805935.7,286046999.8,N
1607805955.5,286047000.2,N
1607805975.3,286047000.6,N
1607805995.2,286047002.5,N
1607806015.0,286047003.6,N
1607806015.9,286047003.6,N
1607806035.7,286047005.9,N
1607806055.6,286047007.3,N
1607806075.4,286047006.4,N
1607806095.3,286047005.0,N
1607806115.1,286047006.6,N
1607806135.8,286047008.6,N
1607806155.7,286047006.0,N
1607806175.5,286047005.7,N
1607806195.4,286047004.8,N
1607806215.2,286047005.0,N
1607806235.0,286047005.5,N
1607806235.9,286047005.5,N
1607806255.8,286047006.3,N
1607806275.6,286047003.3,N
1607806295.4,286047004.0,N
1607806315.3,286047000.6,N
1607806335.1,286046999.0,N
1607806355.9,286047001.1,N
1607806375.7,286046998.7,N
1607806395.5,286046998.1,N
1607806415.4,286046995.0,N
1607806435.2,286046992.4,N
1607806455.0,286046993.2,N
1607806456.0,286046993.2,N
1607806475.8,286046994.2,N
1607806495.6,286046994.5,N
1607806515.5,286046993.8,N
1607806535.3,286046996.2,N
1607806555.1,286046994.0,N
1607806575.9,286046994.7,N
1607806595.7,286046994.3,N
1607806615.6,286046990.5,N
1607806635.4,286046992.7,N
1607806655.2,286046994.0,N
1607806675.1,286046994.5,N
1607806676.0,286046994.5,N
1607806695.8,286046993.6,N
1607806715.6,286046994.0,N
1607806735.5,286046993.7,N
1607806755.3,286046998.4,N
1607806775.2,286047000.7,N
1607806795.9,286046996.7,N
